Regional Weather Roundup
Issued by NWS

Home | Current Version | Previous Version | Text Only | Print | Product List | Glossary On
Versions: 1 2 3 4 5 6 7 8 9 10 11 12 13 14 15 16 17 18 19 20 21 22 23 24 25 26 27 28 29 30 31 32 33 34 35 36 37 38 39 40 41 42 43 44 45 46 47 48 49 50
000
ASUS43 KTOP 081208
RWRKS

WEATHER ROUNDUP FOR KANSAS
NATIONAL WEATHER SERVICE GOODLAND KS
600 AM CST THU DEC 08 2016

NOTE:  "FAIR" INDICATES FEW OR NO CLOUDS BELOW 12,000 FEET WITH NO
SIGNIFICANT WEATHER AND/OR OBSTRUCTIONS TO VISIBILITY.

KSZ001>006-013>018-027>032-041>047-081300-
NORTHWEST KANSAS

CITY           SKY/WX    TMP DP  RH WIND       PRES   REMARKS
GOODLAND       CLOUDY    -4 -11  72 W10       30.53R WCI -21
6HR MIN TEMP:  -4; 6HR MAX TEMP:   2;

HAYS           CLEAR      8   1  73 NW12      30.62  WCI  -7
HILL CITY      CLEAR      2  -4  76 W10       30.63R WCI -14
6HR MIN TEMP:   2; 6HR MAX TEMP:  11;

RUSSELL        CLEAR      8   2  76 NW14      30.61R WCI  -8
6HR MIN TEMP:   8; 6HR MAX TEMP:  15;

$$

KSZ061>065-074>080-084>089-081300-
SOUTHWEST KANSAS

CITY           SKY/WX    TMP DP  RH WIND       PRES   REMARKS
DODGE CITY     CLOUDY     4  -1  80 NW6       30.59R
6HR MIN TEMP:   3; 6HR MAX TEMP:  13;

ELKHART          N/A      9  -3  58 NW3         N/A
GARDEN CITY    CLOUDY    -3  -7  82 W5        30.57R
6HR MIN TEMP:  -3; 6HR MAX TEMP:  10;

LIBERAL        CLOUDY    10   1  67 NW5       30.58S
PRATT          CLEAR      9   4  78 N14       30.61R WCI  -7
6HR MIN TEMP:   9; 6HR MAX TEMP:  15;

$$

KSZ066>073-081>083-090>101-081300-
SOUTHEAST KANSAS

CITY           SKY/WX    TMP DP  RH WIND       PRES   REMARKS
CHANUTE        CLEAR     17   9  70 NW9       30.59R
6HR MIN TEMP:  17; 6HR MAX TEMP:  20;

COFFEYVILLE    PTCLDY    18  11  74 NW8       30.62R
6HR MIN TEMP:  18; 6HR MAX TEMP:  23;

HUTCHINSON     CLEAR     14   5  67 NW12      30.62R WCI   0
6HR MIN TEMP:  14; 6HR MAX TEMP:  19;

MEDICINE LODGE   N/A     13   8  81 CALM      30.64R
NEWTON         CLEAR     14   6  70 NW15      30.60R WCI  -1
PARSONS        CLEAR     19   9  65 NW13      30.61R WCI   6
6HR MIN TEMP:  16; 6HR MAX TEMP:  20;

WICHITA INTL   CLEAR     17   7  64 N16       30.61R WCI   2
6HR MIN TEMP:  17; 6HR MAX TEMP:  20;

WICHITA JABRA  CLEAR     15   7  70 NW14      30.60R WCI   0
6HR MIN TEMP:  15; 6HR MAX TEMP:  19;

WICHITA MCCONL CLEAR     17   5  61 N15       30.60R WCI   2
WINFIELD       CLEAR     15   8  73 N8        30.63R
6HR MIN TEMP:  15; 6HR MAX TEMP:  21;

$$

KSZ007>012-019>026-033>040-048>060-102>105-081300-
NORTHEAST KANSAS

CITY           SKY/WX    TMP DP  RH WIND       PRES   REMARKS
CONCORDIA      CLEAR     10   3  73 NW14      30.59S WCI  -6
6HR MIN TEMP:  10; 6HR MAX TEMP:  16;

EMPORIA        CLEAR     14   7  73 NW14      30.58R WCI  -1
6HR MIN TEMP:  14; 6HR MAX TEMP:  17;

LAWRENCE       CLEAR     15   8  73 W13       30.57R WCI   1
6HR MIN TEMP:  15; 6HR MAX TEMP:  20;

MANHATTAN      CLEAR     15   5  64 NW5       30.61R
6HR MIN TEMP:  15; 6HR MAX TEMP:  19;

MARYSVILLE     CLEAR     12   5  73 NW14G20   30.57R WCI  -3
OLATHE IND     CLEAR     14   7  73 NW13      30.54R WCI   0
6HR MIN TEMP:  14; 6HR MAX TEMP:  20;

OLATHE EXE     CLEAR     14   5  67 NW13      30.53R WCI   0
6HR MIN TEMP:  14; 6HR MAX TEMP:  20;

SALINA         CLEAR     13   5  70 NW10      30.64R WCI   0
6HR MIN TEMP:  13; 6HR MAX TEMP:  17;

TOPEKA BILLARD CLEAR     15   6  67 W8        30.59R
6HR MIN TEMP:  15; 6HR MAX TEMP:  20;

TOPEKA FORBES  CLEAR     16   6  65 NW15      30.57R WCI   1
6HR MIN TEMP:  16; 6HR MAX TEMP:  20;

$$



USA.gov is the U.S. government's official web portal to all federal, state and local government web resources and services.